Location: Dötzum
(52.0808°N, 9.8063°E)
Time: 06:27:52
(UTC+00:00)

Cosmos 1140 Rocket - Pass Details

Date: 27 May 2022
Orbit: 743 x 767 km, 74.1° (Epoch: 26 June)

Event Time Altitude Azimuth Distance (km) Brightness Sun altitude
Rises 02:13:51 0° 333° (NNW) 3,249 7.1 -7.2°
Reaches altitude 10° 02:16:14 10° 331° (NNW) 2,319 6.3 -7.0°
Maximum altitude 02:21:28 69° 249° (WSW) 824 3.5 -6.5°
Drops below altitude 10° 02:26:40 10° 167° (SSE) 2,300 5.7 -5.9°
Sets 02:29:01 0° 165° (SSE) 3,219 6.4 -5.7°
